User: anonymous   Login
Location: Iola
(37.9240°N, 95.4000°W)
Time: 14:36:41
(UTC-06:00)
Language:

Meteor 2-10 Rocket - Orbit

View from above orbital plane
View from above orbital plane
View from above satellite
View from above satellite

Ground track
Ground track

The orbit data is extracted from the following two-line orbital elements,

1 14453U 83109B   17058.47580719  .00000016  00000-0  13440-5 0  9994
2 14453  81.1659 216.6645 0105301  21.6266 338.9309 14.24667668731907
Epoch (UTC): 27 February 2017 11:25:09
Eccentricity: 0.0105301
inclination: 81.1659°
perigee height: 734 km
apogee height: 885 km
right ascension of ascending node: 216.6645°
argument of perigee: 21.6266°
revolutions per day: 14.24667668
mean anomaly at epoch: 338.9309°
orbit number at epoch: 73190

The dashed part of the orbit path shows where the satellite is in the earth's shadow,  

DLR